Regional Weather Roundup
Issued by NWS Grand Forks, ND

Home | Current Version | Previous Version | Text Only | Print | Product List | Glossary Off
Versions: 1 2 3 4 5 6 7 8 9 10 11 12 13 14 15 16 17 18 19 20 21 22 23 24 25 26 27 28 29 30 31 32 33 34 35 36 37 38 39 40 41 42 43 44 45 46 47 48 49 50

000
ASUS43 KFGF 281331
RWRFGF
PRAIRIE TO PINES  WEATHER ROUNDUP
NATIONAL WEATHER SERVICE EASTERN NORTH DAKOTA/GRAND FORKS ND
800 AM CDT WED SEP 28 2016

 **SATELLITE DATA USED TO AUGMENT SKY COVER AT AUTOMATED STATIONS**
 *****  WEATHER ACROSS EASTERN NORTH DAKOTA  *****

CITY           SKY/WX    TMP DP  RH WIND       PRES   REMARKS
GRAND FORKS    CLOUDY    38  36  92 NW6       30.23R
GRAND FRKS AFB CLOUDY    38  38  98 N5        30.24R
GRAND FRKS NWS   N/A     39 N/A N/A N3          N/A
DEVILS LAKE    CLOUDY    46  44  93 E5        30.25R
FARGO          CLOUDY    46  42  86 N6        30.22R
WAHPETON ARPT  CLOUDY    45  41  87 N6        30.22R
$$

 ***** WEATHER ACROSS CENTRAL AND WESTERN NORTH DAKOTA  *****

CITY           SKY/WX    TMP DP  RH WIND       PRES   REMARKS
BISMARCK       CLOUDY    37  35  92 E3        30.23R
MINOT          CLEAR     41  37  86 CALM      30.21R
JAMESTOWN      CLOUDY    45  44  97 CALM      30.23R
MINOT AFB      CLEAR     38  35  92 SE3       30.20R
GARRISON         N/A     42  39  89 E5        30.21R
WILLISTON      CLEAR     47  44  90 NE6       30.21R
DICKINSON      CLEAR     45  40  82 E3        30.18R
HETTINGER      CLEAR     43  40  89 CALM      30.20R
$$

 *****  OTHER AIRPORT OBSERVATIONS IN OUR AREA  *****

CITY           SKY/WX    TMP DP  RH WIND       PRES   REMARKS
WALHALLA       FAIR      41  41 100 CALM      30.27R
GRAFTON AIRPOR FAIR      43  43 100 NW5       30.27R
VALLEY CITY AR FAIR      41  41 100 NW6       30.26R
CANDO          FOG       36  36 100 CALM      30.28R VSB<1/4
CAVALIER APRT  FAIR      41  41 100 CALM      30.26R
GWINNER        FAIR      41  41 100 N6        30.23R
SHEYENNE NWR     N/A     40  38  93 N3        29.95S
ROLLA          FAIR      41  41 100 CALM      30.25R
 ***** THE ABOVE OBSERVATIONS ARE NON NWS ARE NOT QUALITY
       CONTROLLED AND MAY MIS-REPORT RAIN FOR SNOW...
$$

  *****  WEATHER ACROSS NORTHERN MINNESOTA  *****

CITY           SKY/WX    TMP DP  RH WIND       PRES   REMARKS
FLAG ISLAND    CLOUDY    50  48  93 NW7       30.22R
WARROAD        CLOUDY    48  45  87 N5        30.23R
ROSEAU         CLOUDY    48  45  87 N5        30.24R
HALLOCK        CLOUDY    39  37  93 CALM      30.25R
THF RVR FALLS    N/A     46  44  93 N8        30.24R
BAUDETTE       CLOUDY    50  48  93 NE7       30.22R
WASKISH        FOG       46  46 100 NE3       30.22R VSB 1/4
CROOKSTON      CLOUDY    48  46  93 CALM      30.24R
STEPHEN NDAWN    N/A     37  37 100 NW2         N/A
GREENBUSH NDAW   N/A     43  43 100 CALM        N/A
$$
  *****  WEATHER ACROSS CENTRAL AND WEST MINNESOTA  *****

CITY           SKY/WX    TMP DP  RH WIND       PRES   REMARKS
FOSSTON        CLOUDY    45  45 100 N3        30.23R
BEMIDJI        CLOUDY    47  47  99 N6        30.21R
PARK RAPIDS    CLOUDY    49  44  83 N8        30.18R
ELBOW LAKE     CLOUDY    46  45  95 E6        30.20R
WADENA         CLOUDY    46  45  93 N6        30.17R
DETROIT LAKES  CLOUDY    46  45  93 NE6       30.21R
MOORHEAD       CLOUDY    46  43  87 NE8       30.23R
FERGUS FALLS   CLOUDY    46  46 100 NE6       30.23R
MORRIS MN      CLOUDY    48  45  87 N9        30.18R
STAPLES        CLEAR     46  46 100 NW5       30.17R
$$
  *****  WEATHER ELSEWHERE ACROSS MINNESOTA  *****

CITY           SKY/WX    TMP DP  RH WIND       PRES   REMARKS
DULUTH         PTCLDY    50  48  93 N8        30.11R
INTRNTL FALLS  CLOUDY    51  46  83 NE3       30.20R
ELY            CLOUDY    50  46  87 N5        30.15R
CLOQUET        CLEAR     48  46  93 N8        30.12R
WHEATON        CLOUDY    45  43  93 CALM      30.21R
BRAINERD       CLEAR     48  47  96 N7        30.15R
HIBBING        MOCLDY    48  47  96 N6        30.15R
ALEXANDRIA     CLOUDY    48  47  96 N7        30.18R
SAINT CLOUD    CLEAR     48  47  96 N8        30.11R
MINNEAPOLIS    CLOUDY    52  47  83 N12       30.08R
$$

  *****  WEATHER ACROSS SOUTH DAKOTA  *****

CITY           SKY/WX    TMP DP  RH WIND       PRES   REMARKS
SIOUX FALLS    CLOUDY    46  43  89 N9        30.16R
BROOKINGS      CLOUDY    43  41  93 N7        30.17R
WATERTOWN      CLOUDY    40  38  93 N5        30.18R
HURON          CLOUDY    43  41  93 NW5       30.19R
SISSETON         N/A     39  37  92 N5        30.20R
ABERDEEN       CLOUDY    40  38  93 N6        30.21R
MITCHELL       CLOUDY    42  40  92 N5        30.21R
PIERRE         CLOUDY    38  34  85 E6        30.19R
MOBRIDGE       CLOUDY    40  36  86 E3        30.19R
RAPID CITY     CLEAR     54  40  59 NW8       30.20R
$$

  *****  SOME WEATHER IN NEARBY STATES *****

CITY           SKY/WX    TMP DP  RH WIND       PRES   REMARKS
GLASGOW MT     CLEAR     48  42  80 W8        30.27R
GREAT FALLS MT CLEAR     37  34  89 W5        30.31F
CHEYENNE WY    CLOUDY    46  31  55 W12       30.34R
SCOTTSBLUFF NE CLEAR     45  39  79 N7        30.26R
OMAHA NE       PTCLDY    47  41  80 N6        30.09R
DES MOINES IA  CLOUDY    53  43  68 N21       30.02R
DAVENPORT IA   CLOUDY    51  44  77 N13       29.93R
CHICAGO IL     CLOUDY    51  46  83 N12       29.84R
EAU CLAIRE WI  CLOUDY    53  51  93 N9        30.01R FOG
LA CROSSE WI   CLOUDY    55  51  86 N12       29.96R
$$

  *****  SOME NATIONAL WEATHER *****

CITY           SKY/WX    TMP DP  RH WIND       PRES   REMARKS
LA GUARDIA NY  PTSUNNY   67  63  87 NE21      30.07R
RALEIGH NC     PTSUNNY   73  68  84 SW3       29.96R
ATLANTA GA     SUNNY     68  61  78 NW8       29.96R
NEW ORLEANS LA CLOUDY    81  64  56 NE7       29.98R
OKLAHOMA CITY  PTCLDY    56  50  80 SW6       30.00S
ALBUQUERQUE NM PTCLDY    56  37  49 N9        30.28R
SALT LAKE CITY CLEAR     55  47  74 SE6       30.16R
LOS ANGELES CA PTCLDY    71  62  73 E7        29.90R
BOISE ID       CLEAR     55  43  63 CALM      30.03R
SEATTLE WA     MOCLDY    53  47  79 NE6       30.11S
$$

*** WEATHER ACROSS MANITOBA...SASKATCHEWAN AND ONTARIO ***
                ***ONTARIO***

CITY           SKY/WX    TMP DP  RH WIND       PRES   REMARKS
GERALDTON      DRIZZLE   52  50  93 NE7       30.16R
THUNDER BAY    PTSUNNY   54  48  82 N5        30.11R
SIOUX LOOKOUT  CLOUDY    48  48 100 VRB2      30.22R
TORONTO        PTSUNNY   63  52  67 E7        29.97R
BIG TROUT LK   CLOUDY    50  50 100 NW3       30.20R
PICKLE LAKE    DRIZZLE   48  46  93 N5        30.22R
DRYDEN         CLOUDY    48  48 100 N5        30.21R
KENORA         MOCLDY    50  48  93 NE7       30.23R
$$
                *** MANITOBA***

CITY           SKY/WX    TMP DP  RH WIND       PRES   REMARKS
BRANDON        FOG       34  32  93 N3        30.25R VSB 1/4
DAUPHIN        CLEAR     41  39  93 W10       30.24R
ISLAND LAKE    CLOUDY    46  45  93 W13       30.22R
PILOT MOUND      N/A     32  32 100 SW1         N/A
THE PAS        PTCLDY    50  45  81 NW6       30.24R
THOMPSON       PTCLDY    41  39  93 W6        30.16R
WINNIPEG       CLEAR     36  36 100 CALM      30.26R
LYNN LAKE      CLEAR     41  39  93 W7        30.14R
CHURCHILL      PTCLDY    45  43  93 SW13      29.96R
GILLAM         MOCLDY    45  43  93 SW10      30.11R
$$
                ***SASKATCHEWAN***

CITY           SKY/WX    TMP DP  RH WIND       PRES   REMARKS
ESTEVAN        PTCLDY    37  36  93 N8        30.20R
KINDERSLEY     PTCLDY    37  32  81 N5        30.36R
LLOYDMINSTER   MOCLDY    36  28  75 W8        30.35R
PRINCE ALBERT  FOG       32  32 100 W3        30.33R VSB 1/4
REGINA         PTCLDY    46  43  87 N12       30.27R
YORKTON        CLEAR     36  34  93 NW5       30.24R
N. BATTLEFORD  CLEAR     34 N/A N/A NW6       30.38R
LA RONGE       CLEAR     39  36  87 SW5       30.28R
SASKATOON      CLEAR     34  34 100 W2        30.36R
SWIFT CURRENT  CLOUDY    45  41  87 NE7       30.32S
$$
NOTE: THESE ARE AUTOMATED STATIONS WITH LIMITED QUALITY CONTROL
      "FAIR" INDICATES FEW OR NO CLOUDS BELOW 12,000 FEET WITH NO
      SIGNIFICANT WEATHER AND/OR OBSTRUCTIONS TO VISIBILITY.
      SKY/WX - SKY CONDITION AND SIGNIFICANT WEATHER.
      TMP - AIR TEMPERATURE.    DP   - DEWPOINT TEMPERATURE.
      RH  - RELATIVE HUMIDITY.  PRES - PRESSURE.
      HX  - HEAT INDEX.         WCI  - WIND CHILL INDEX.
$




USA.gov is the U.S. government's official web portal to all federal, state and local government web resources and services.